Location: Copeville
(33.0796°N, 96.4155°W)
Time: 05:51:49
(UTC+00:00)

Tiangong - Visible Passes

Search period start: 04 December 2023 00:00
Search period end: 14 December 2023 00:00
Orbit: 373 x 383 km, 41.5° (Epoch: 03 December)

Date Brightness Start Highest point End Pass type
(mag) Time Alt. Az. Time Alt. Az. Time Alt. Az.
04 Dec -0.9 00:26:11 10° WNW 00:29:10 41° SSW 00:32:09 10° SE visible
05 Dec 1.2 01:03:03 10° SW 01:03:48 11° SW 01:04:33 10° SSW visible
05 Dec 0.5 23:59:43 10° W 00:02:15 22° SW 00:04:45 10° SSE visible
13 Dec 0.6 12:30:15 10° SSW 12:32:38 20° SE 12:35:01 10° E visible
